Location: Ash Swamp
(41.5170°N, 74.6157°W)
Time: 02:42:08
(UTC+00:00)

Cosmos 2344 - Pass Details

Date: 14 July 2020
Orbit: 1249 x 2994 km, 63.3° (Epoch: 14 August)

Event Time Altitude Azimuth Distance (km) Brightness Sun altitude
Rises 03:19:14 0° 232° (SW) 4,286 6.2 -22.3°
Reaches altitude 10° 03:22:07 10° 237° (WSW) 3,251 5.6 -22.6°
Maximum altitude 03:29:23 52° 314° (NW) 1,533 4.3 -23.1°
Drops below altitude 10° 03:37:13 10° 30° (NNE) 3,493 6.3 -23.7°
Sets 03:40:28 0° 36° (NE) 4,633 7.0 -23.9°
